Regional Weather Roundup
Issued by NWS Little Rock, AR

Home | Current Version | Previous Version | Graphics & Text | Print | Product List | Glossary On
Versions: 1 2 3 4 5 6 7 8 9 10 11 12 13 14 15 16 17 18 19 20 21 22 23 24 25 26 27 28 29 30 31 32 33 34 35 36 37 38 39 40 41 42 43 44 45 46 47 48 49 50
000
ASUS44 KLZK 191705
RWRLZK

WEATHER ROUNDUP FOR ARKANSAS
NATIONAL WEATHER SERVICE LITTLE ROCK AR
1200 PM CDT TUE AUG 19 2014

NOTE: "FAIR" INDICATES FEW OR NO CLOUDS BELOW 12,000 FEET WITH NO
SIGNIFICANT WEATHER AND/OR OBSTRUCTIONS TO VISIBILITY.

ARZ001-003-010-029-191800-
NORTHWEST ARKANSAS

CITY           SKY/WX    TMP DP  RH WIND       PRES   REMARKS
FAYETTEVILLE   SUNNY     89  67  47 SW13      29.93R HX  92
FORT SMITH     SUNNY     88  73  61 SW9       29.90S HX  95
HARRISON       MOSUNNY   87  69  54 SW6       29.93S HX  91
BENTONVILLE    SUNNY     88  68  51 W7        29.94S HX  91
ROGERS         SUNNY     87  67  51 SW9       29.94R HX  90
SILOAM SPGS    MOSUNNY   86  66  51 SW9       29.94S HX  88
HIGHFILL       SUNNY     87  67  51 SW9       29.93R HX  90
SPRINGDALE     MOSUNNY   88  68  51 SW6       29.95R HX  91
$$

ARZ004-005-016-191800-
NORTH CENTRAL ARKANSAS

CITY           SKY/WX    TMP DP  RH WIND       PRES   REMARKS
BATESVILLE     MOSUNNY   91  70  49 SW7       29.88F HX  97
FLIPPIN        SUNNY     91  66  43 W8        29.90S HX  94
MTN HOME       SUNNY     90  67  46 VRB6      29.90S HX  93
$$

ARZ040-041-191800-
WEST CENTRAL ARKANSAS

CITY           SKY/WX    TMP DP  RH WIND       PRES   REMARKS
MENA           SUNNY     88  75  66 CALM      29.97F HX  97
MOUNT IDA      SUNNY     87  74  64 VRB3      29.94S HX  95
$$

ARZ009-017-025-026-028-191800-
NORTHEAST ARKANSAS

CITY           SKY/WX    TMP DP  RH WIND       PRES   REMARKS
CORNING        FAIR      88  73  62 SW10      29.87F HX  96
JONESBORO      PTSUNNY   83  69  62 SW13      29.90S HX  86
NEWPORT        PTSUNNY   83  71  66 S13       29.91F HX  87
WALNUT RIDGE   SUNNY     88  70  55 S13       29.87F HX  92
BLYTHEVILLE    MOSUNNY   84  73  69 SW12      29.91R HX  90
$$

ARZ022-023-033-042-044-191800-
CENTRAL ARKANSAS

CITY           SKY/WX    TMP DP  RH WIND       PRES   REMARKS
LITTLE ROCK    MOSUNNY   88  73  61 CALM      29.93S HX  95
N LITTLE ROCK  MOSUNNY   87  76  68 SW6       29.93S HX  97
JACKSONVILLE   SUNNY     88  74  63 VRB6      29.92F HX  96
SEARCY           N/A     85  76  74 CALM        N/A  HX  94
HOT SPRINGS    SUNNY     86  74  67 SW7       29.95F HX  94
RUSSELLVILLE   MOSUNNY   87  72  60 CALM      29.91F HX  93
CLINTON        FAIR      91  73  55 SW5       29.89F HAZE    HX 100
$$

ARZ036-191800-
EAST ARKANSAS

CITY           SKY/WX    TMP DP  RH WIND       PRES   REMARKS
WEST MEMPHIS   CLOUDY    75  71  87 SW6       29.92F
$$

ARZ050-053-066-070-073-191800-
SOUTHWEST ARKANSAS

CITY           SKY/WX    TMP DP  RH WIND       PRES   REMARKS
ARKADELPHIA    FAIR      88  77  69 SW5       29.95F HX 100
CAMDEN         MOSUNNY   90  75  62 W5        29.96S HX 100
TEXARKANA      MOSUNNY   87  77  72 S7        29.96R HX  99
EL DORADO      MOSUNNY   88  77  69 SW7       29.97R HX 100
DE QUEEN       MOSUNNY   86  75  69 SW6       29.94S HX  95
$$

ARZ056-057-069-191800-
SOUTHEAST ARKANSAS

CITY           SKY/WX    TMP DP  RH WIND       PRES   REMARKS
PINE BLUFF     PTSUNNY   87  74  64 W6        29.94S HX  95
STUTTGART      PTSUNNY   84  73  70 CALM      29.94F HX  91
MONTICELLO     MOSUNNY   88  76  67 W8        29.95S HX  99

$$





USA.gov is the U.S. government's official web portal to all federal, state and local government web resources and services.